Regional Weather Roundup
Issued by NWS

Home | Current Version | Previous Version | Text Only | Print | Product List | Glossary Off
Versions: 1 2 3 4 5 6 7 8 9 10 11 12 13 14 15 16 17 18 19 20 21 22 23 24 25 26 27 28 29 30 31 32 33 34 35 36 37 38 39 40 41 42 43 44 45 46 47 48 49 50

000
ASUS43 KFSD 211410
RWRSD

WEATHER ROUNDUP FOR SOUTH DAKOTA
NATIONAL WEATHER SERVICE SIOUX FALLS SD
900 AM CDT TUE APR 21 2015

NOTE: "FAIR" INDICATES FEW OR NO CLOUDS BELOW 12,000 FEET WITH NO
SIGNIFICANT WEATHER AND/OR OBSTRUCTIONS TO VISIBILITY.


SDZ001>005-009-010-012>017-211500-
NORTHWEST AND NORTH CENTRAL SOUTH DAKOTA

CITY           SKY/WX    TMP DP  RH WIND       PRES   REMARKS
BUFFALO          N/A     36  19  50 NE15      29.75R
FAITH            N/A     34  21  59 E13       29.82R WCI  25
MOBRIDGE       FLURRIES  37  31  78 N10       29.82S
$$

SDZ012>016-024>037-041>051-057-063-072>074-211500-
SOUTHWEST AND SOUTH CENTRAL SOUTH DAKOTA

CITY           SKY/WX    TMP DP  RH WIND       PRES   REMARKS
RAPID CTY ARPT MOSUNNY   49  24  37 NW8       29.78S
PIERRE         CLOUDY    38  24  57 NE12      29.83R
CUSTER         SUNNY     40  18  41 W10       29.83R
ELLSWORTH AFB  MOSUNNY   44  24  44 CALM      29.77S
PHILIP         MOSUNNY   43  32  65 CALM      29.81R
PINE RIDGE     SUNNY     41  25  53 NW3       29.83S
SPEARFISH      FAIR      50  23  34 W15       29.80S
WINNER         CLOUDY    41  23  48 N10       29.84R
$$

SDZ004>011-016>023-039-040-211500-
NORTHEAST SOUTH DAKOTA

CITY           SKY/WX    TMP DP  RH WIND       PRES   REMARKS
ABERDEEN       PTSUNNY   37  24  59 N24G31    29.82R
WATERTOWN      CLOUDY    35  24  64 NW23G29   29.74R WCI  23
BROOKINGS      PTSUNNY   36  25  64 NW22G30   29.77R
SISSETON         N/A     34  28  79 N22G30    29.72R WCI  22
$$

SDZ017-020-022-023-036>040-048>070-211500-
SOUTHEAST SOUTH DAKOTA

CITY           SKY/WX    TMP DP  RH WIND       PRES   REMARKS
SIOUX FALLS    PTSUNNY   39  25  57 NW20      29.78S
HURON          CLOUDY    37  26  64 NW13      29.83S
CHAMBERLAIN    PTSUNNY   37  22  56 N10       29.85R
MITCHELL       CLOUDY    37  24  59 N14       29.84S
YANKTON        SUNNY     37  21  52 NW14      29.82S
$$

ABBREVIATIONS USED IN REMARKS
   TC - TEMPERATURE IN CELSIUS
  WCI - WIND CHILL INDEX
   HX - HEAT INDEX
  VSB - VISIBILITY



USA.gov is the U.S. government's official web portal to all federal, state and local government web resources and services.